Location: Rancho Del Sol Observatory
(38.7214°N, 120.6350°W)
Time: 15:25:25
(UTC-08:00)

A-11 Canister half - Visible Passes

Search period start: 24 January 2020 00:00
Search period end: 03 February 2020 00:00
Orbit: 1517 x 1683 km, 47.2° (Epoch: 24 January)

Date Brightness Start Highest point End Pass type
(mag) Time Alt. Az. Time Alt. Az. Time Alt. Az.
24 Jan 9.7 03:18:57 42° NE 03:18:57 42° NE 03:25:27 10° E visible
24 Jan 8.9 05:17:10 31° NW 05:22:16 81° NNE 05:31:41 10° ESE visible
25 Jan 10.1 02:57:21 34° ENE 02:57:21 34° ENE 03:02:27 10° ENE visible
25 Jan 8.9 04:55:33 41° NW 04:59:20 78° NNE 05:08:44 10° ESE visible
26 Jan 10.5 02:35:47 26° ENE 02:35:47 26° ENE 02:39:27 10° ENE visible
26 Jan 8.9 04:33:59 54° NW 04:36:25 75° NNE 04:45:46 10° ESE visible
26 Jan 9.5 06:32:23 10° WNW 06:40:55 43° SW 06:49:37 10° SSE visible
27 Jan 10.8 02:14:15 19° ENE 02:14:15 19° ENE 02:16:28 10° ENE visible
27 Jan 8.9 04:12:28 67° NNW 04:13:30 72° NNE 04:22:48 10° ESE visible
27 Jan 9.4 06:10:40 15° WNW 06:18:05 46° SW 06:26:52 10° SSE visible
28 Jan 11.1 01:52:46 13° ENE 01:52:46 13° ENE 01:53:28 10° ENE visible
28 Jan 9.0 03:50:59 69° NE 03:50:59 69° NE 03:59:50 10° ESE visible
28 Jan 9.3 05:49:12 21° WNW 05:55:13 49° SW 06:04:06 10° SSE visible
28 Jan 10.8 21:02:13 10° SSW 21:03:35 15° SSW 21:03:35 15° SSW visible
29 Jan 9.3 03:29:33 56° ENE 03:29:33 56° ENE 03:36:52 10° ESE visible
29 Jan 9.1 05:27:46 30° WNW 05:32:23 52° SW 05:41:20 10° SSE visible
29 Jan 10.4 20:39:29 10° SSW 20:42:33 21° S 20:42:33 21° S visible
30 Jan 9.8 03:08:10 41° E 03:08:10 41° E 03:13:53 10° ESE visible
30 Jan 9.0 05:06:23 40° W 05:09:30 56° SW 05:18:32 10° SSE visible
30 Jan 10.1 20:16:46 10° SSW 20:21:32 28° S 20:21:32 28° S visible
31 Jan 10.3 02:46:50 29° E 02:46:50 29° E 02:50:55 10° E visible
31 Jan 8.9 04:45:04 53° WSW 04:46:39 59° SW 04:55:44 10° SE visible
31 Jan 9.8 19:54:03 10° SSW 20:00:31 32° SSE 20:00:31 32° SSE visible
31 Jan 10.9 21:57:11 10° WSW 21:58:47 16° WSW 21:58:47 16° WSW visible
01 Feb 10.7 02:25:34 20° E 02:25:34 20° E 02:27:56 10° E visible
01 Feb 8.9 04:23:48 62° SW 04:23:48 62° SW 04:32:54 10° SE visible
01 Feb 10.3 06:22:09 10° W 06:27:16 16° SW 06:32:27 10° SSW visible
01 Feb 9.6 19:31:23 10° S 19:39:31 33° SE 19:39:31 33° SE visible
01 Feb 10.4 21:34:13 10° WSW 21:37:46 26° WSW 21:37:46 26° WSW visible
02 Feb 11.1 02:04:22 12° E 02:04:22 12° E 02:04:56 10° E visible
02 Feb 9.1 04:02:36 57° S 04:02:36 57° S 04:10:04 10° SE visible
02 Feb 10.2 06:00:50 14° W 06:04:28 18° SW 06:10:08 10° SSW visible
02 Feb 9.7 19:08:43 10° S 19:16:50 31° SE 19:18:29 29° ESE visible
02 Feb 9.8 21:11:17 10° SW 21:16:44 39° SW 21:16:44 39° SW visible
